| time (UTC) | temp F | wind direction | speed MPH | gust MPH | rain 1hr in | rain 24hr in | rain mn in | humidity % | barometer mb |
| 20260831183131 | 83 | 263 | 0.0 | 3.0 | 0.00 | 0.08 | 0.03 | 71 | 1017.2 |
| 20260831182623 | 83 | 263 | 0.0 | 3.0 | 0.00 | 0.08 | 0.03 | 73 | 1017.1 |
| 20260831182125 | 83 | 263 | 0.0 | 4.0 | 0.00 | 0.08 | 0.03 | 72 | 1017.2 |
| 20260831181601 | 83 | 263 | 0.0 | 4.0 | 0.00 | 0.08 | 0.03 | 72 | 1017.2 |
| 20260831181103 | 83 | 236 | 0.0 | 4.0 | 0.00 | 0.08 | 0.03 | 71 | 1017.4 |
| 20260831180558 | 83 | 235 | 0.0 | 4.0 | 0.00 | 0.08 | 0.03 | 72 | 1017.4 |
| 20260831180059 | 83 | 234 | 0.0 | 2.0 | 0.00 | 0.08 | 0.03 | 71 | 1017.4 |
| 20260831175824 | 83 | 234 | 0.0 | 2.0 | 0.00 | 0.09 | 0.03 | 71 | 1017.3 |
| 20260831175310 | 84 | 234 | 0.0 | 1.0 | 0.00 | 0.09 | 0.03 | 69 | 1017.4 |
| 20260831174535 | 84 | 234 | 0.0 | 3.0 | 0.00 | 0.09 | 0.03 | 67 | 1017.4 |
| 20260831174029 | 85 | 234 | 0.0 | 3.0 | 0.00 | 0.09 | 0.03 | 68 | 1017.4 |
| 20260831173532 | 85 | 233 | 0.0 | 4.0 | 0.00 | 0.10 | 0.03 | 68 | 1017.4 |
| 20260831173025 | 85 | 234 | 0.0 | 4.0 | 0.00 | 0.10 | 0.03 | 66 | 1017.3 |
| 20260831172456 | 85 | 227 | 0.0 | 4.0 | 0.00 | 0.11 | 0.03 | 70 | 1017.3 |
| 20260831172211 | 84 | 202 | 0.0 | 4.0 | 0.00 | 0.11 | 0.03 | 70 | 1017.4 |
| 20260831171437 | 84 | 202 | 0.0 | 5.0 | 0.00 | 0.12 | 0.03 | 71 | 1017.3 |
| 20260831170931 | 85 | 202 | 1.0 | 5.0 | 0.00 | 0.12 | 0.03 | 69 | 1017.3 |
| 20260831170641 | 85 | 201 | 1.0 | 6.0 | 0.00 | 0.12 | 0.03 | 68 | 1017.3 |
| 20260831165914 | 85 | 201 | 1.0 | 6.0 | 0.00 | 0.12 | 0.03 | 68 | 1017.4 |
| 20260831165356 | 85 | 204 | 1.0 | 5.0 | 0.00 | 0.12 | 0.03 | 69 | 1017.7 |
| 20260831164859 | 85 | 217 | 1.0 | 4.0 | 0.00 | 0.12 | 0.03 | 70 | 1017.6 |
| 20260831164325 | 85 | 217 | 0.0 | 4.0 | 0.00 | 0.12 | 0.03 | 71 | 1017.4 |
| 20260831163812 | 85 | 217 | 0.0 | 3.0 | 0.00 | 0.12 | 0.03 | 71 | 1017.4 |
| 20260831163314 | 84 | 216 | 0.0 | 3.0 | 0.00 | 0.12 | 0.03 | 73 | 1017.4 |
| 20260831162759 | 84 | 216 | 0.0 | 3.0 | 0.00 | 0.12 | 0.03 | 74 | 1017.4 |
| 20260831162258 | 83 | 216 | 0.0 | 1.0 | 0.00 | 0.12 | 0.03 | 75 | 1017.4 |
| 20260831161750 | 83 | 215 | 0.0 | 0.0 | 0.00 | 0.12 | 0.03 | 75 | 1017.3 |
| 20260831161252 | 82 | 215 | 0.0 | 0.0 | 0.00 | 0.12 | 0.03 | 75 | 1017.3 |
| 20260831160738 | 82 | 215 | 0.0 | 0.0 | 0.00 | 0.12 | 0.03 | 77 | 1017.4 |
| 20260831160234 | 82 | 215 | 0.0 | 0.0 | 0.00 | 0.12 | 0.03 | 75 | 1017.4 |
| 20260831155724 | 82 | 215 | 0.0 | 2.0 | 0.00 | 0.12 | 0.03 | 78 | 1017.3 |
| 20260831155216 | 82 | 215 | 0.0 | 2.0 | 0.00 | 0.12 | 0.03 | 76 | 1017.2 |
| 20260831154659 | 82 | 216 | 0.0 | 7.0 | 0.00 | 0.12 | 0.03 | 77 | 1017.2 |
| 20260831154155 | 81 | 216 | 0.0 | 7.0 | 0.00 | 0.12 | 0.03 | 77 | 1017.3 |
| 20260831153648 | 81 | 190 | 1.0 | 4.0 | 0.00 | 0.12 | 0.03 | 77 | 1017.3 |
| 20260831153134 | 81 | 191 | 1.0 | 3.0 | 0.00 | 0.12 | 0.03 | 78 | 1017.2 |
| 20260831152629 | 81 | 190 | 1.0 | 3.0 | 0.00 | 0.12 | 0.03 | 78 | 1017.2 |
| 20260831152345 | 80 | 190 | 1.0 | 3.0 | 0.00 | 0.12 | 0.03 | 80 | 1017.2 |
| 20260831151619 | 80 | 190 | 1.0 | 3.0 | 0.00 | 0.12 | 0.03 | 82 | 1017.1 |
| 20260831151339 | 79 | 190 | 1.0 | 3.0 | 0.00 | 0.12 | 0.03 | 81 | 1017.1 |
| 20260831150606 | 79 | 190 | 0.0 | 3.0 | 0.00 | 0.12 | 0.03 | 81 | 1017.2 |
| 20260831145603 | 79 | 191 | 1.0 | 3.0 | 0.00 | 0.12 | 0.03 | 80 | 1017.6 |
| 20260831145317 | 79 | 191 | 2.0 | 4.0 | 0.00 | 0.12 | 0.03 | 81 | 1017.3 |
| 20260831144557 | 79 | 191 | 2.0 | 4.0 | 0.00 | 0.12 | 0.03 | 80 | 1017.4 |
| 20260831144030 | 79 | 189 | 2.0 | 4.0 | 0.00 | 0.12 | 0.03 | 80 | 1017.3 |
| 20260831143520 | 79 | 188 | 1.0 | 4.0 | 0.00 | 0.12 | 0.03 | 83 | 1017.1 |
| 20260831143017 | 78 | 188 | 1.0 | 4.0 | 0.00 | 0.12 | 0.03 | 86 | 1017.0 |
| 20260831142514 | 77 | 189 | 2.0 | 4.0 | 0.00 | 0.12 | 0.03 | 89 | 1017.0 |
| 20260831142006 | 76 | 189 | 1.0 | 4.0 | 0.00 | 0.12 | 0.03 | 91 | 1016.9 |
| 20260831141504 | 75 | 189 | 0.0 | 3.0 | 0.00 | 0.12 | 0.03 | 94 | 1016.9 |
| 20260831141230 | 74 | 189 | 0.0 | 0.0 | 0.00 | 0.12 | 0.03 | 94 | 1016.7 |
| 20260831140451 | 74 | 189 | 0.0 | 0.0 | 0.00 | 0.12 | 0.03 | 95 | 1016.8 |
| 20260831140218 | 74 | 189 | 0.0 | 0.0 | 0.00 | 0.12 | 0.03 | 95 | 1016.8 |
| 20260831135436 | 74 | 189 | 0.0 | 0.0 | 0.00 | 0.12 | 0.03 | 96 | 1016.7 |
| 20260831134928 | 73 | 189 | 0.0 | 0.0 | 0.00 | 0.12 | 0.03 | 97 | 1016.6 |
| 20260831134916 | 73 | 189 | 0.0 | 4.0 | 0.00 | 0.12 | 0.03 | 98 | 1016.7 |
| 20260831134147 | 72 | 189 | 1.0 | 4.0 | 0.00 | 0.12 | 0.03 | 98 | 1016.7 |
| 20260831133423 | 72 | 189 | 2.0 | 4.0 | 0.00 | 0.12 | 0.03 | 98 | 1016.8 |
| 20260831132918 | 71 | 189 | 1.0 | 4.0 | 0.00 | 0.12 | 0.03 | 98 | 1016.7 |
| 20260831132416 | 71 | 189 | 1.0 | 5.0 | 0.00 | 0.12 | 0.03 | 98 | 1016.6 |
| 20260831131910 | 71 | 189 | 1.0 | 5.0 | 0.00 | 0.12 | 0.03 | 98 | 1016.7 |
| 20260831131354 | 71 | 189 | 1.0 | 4.0 | 0.00 | 0.12 | 0.03 | 98 | 1016.7 |
| 20260831130846 | 70 | 189 | 2.0 | 4.0 | 0.00 | 0.12 | 0.03 | 98 | 1016.8 |
| 20260831130614 | 70 | 189 | 2.0 | 4.0 | 0.00 | 0.12 | 0.03 | 98 | 1016.9 |
| 20260831125825 | 70 | 189 | 2.0 | 4.0 | 0.00 | 0.12 | 0.03 | 99 | 1016.9 |
| 20260831125754 | 70 | 189 | 1.0 | 3.0 | 0.00 | 0.12 | 0.03 | 99 | 1017.0 |
| 20260831124802 | 70 | 189 | 0.0 | 1.0 | 0.00 | 0.12 | 0.03 | 98 | 1016.9 |
| 20260831124301 | 70 | 189 | 1.0 | 4.0 | 0.00 | 0.12 | 0.03 | 98 | 1017.0 |
| 20260831123746 | 69 | 189 | 3.0 | 4.0 | 0.00 | 0.12 | 0.03 | 98 | 1017.0 |
| 20260831123244 | 69 | 189 | 3.0 | 4.0 | 0.00 | 0.12 | 0.03 | 98 | 1016.8 |
| 20260831122741 | 69 | 189 | 3.0 | 4.0 | 0.00 | 0.12 | 0.03 | 98 | 1016.8 |
| 20260831122505 | 69 | 189 | 3.0 | 5.0 | 0.00 | 0.12 | 0.03 | 99 | 1016.9 |
| 20260831121732 | 69 | 189 | 2.0 | 5.0 | 0.00 | 0.12 | 0.03 | 98 | 1016.8 |
| 20260831121234 | 69 | 189 | 0.0 | 3.0 | 0.00 | 0.12 | 0.03 | 98 | 1016.8 |
| 20260831120726 | 69 | 189 | 1.0 | 3.0 | 0.00 | 0.12 | 0.03 | 98 | 1016.8 |
| 20260831120217 | 69 | 189 | 2.0 | 4.0 | 0.00 | 0.12 | 0.03 | 98 | 1016.8 |
| 20260831115712 | 69 | 189 | 3.0 | 4.0 | 0.00 | 0.12 | 0.03 | 98 | 1016.8 |
| 20260831115208 | 69 | 189 | 3.0 | 4.0 | 0.00 | 0.12 | 0.03 | 98 | 1016.8 |
| 20260831114704 | 69 | 189 | 3.0 | 4.0 | 0.00 | 0.12 | 0.03 | 98 | 1016.8 |
| 20260831114157 | 69 | 189 | 3.0 | 4.0 | 0.00 | 0.12 | 0.03 | 98 | 1016.8 |
| 20260831113649 | 69 | 189 | 3.0 | 4.0 | 0.00 | 0.12 | 0.03 | 98 | 1016.8 |
| 20260831113143 | 69 | 189 | 3.0 | 4.0 | 0.00 | 0.12 | 0.03 | 98 | 1016.6 |
| 20260831112641 | 69 | 189 | 3.0 | 5.0 | 0.00 | 0.12 | 0.03 | 98 | 1016.6 |
| 20260831112145 | 69 | 189 | 3.0 | 5.0 | 0.00 | 0.12 | 0.03 | 98 | 1016.5 |
| 20260831111852 | 69 | 189 | 3.0 | 6.0 | 0.00 | 0.12 | 0.03 | 98 | 1016.7 |
| 20260831111132 | 69 | 189 | 3.0 | 6.0 | 0.00 | 0.12 | 0.03 | 98 | 1016.5 |
| 20260831110620 | 69 | 189 | 3.0 | 5.0 | 0.00 | 0.12 | 0.03 | 98 | 1016.6 |
| 20260831110124 | 69 | 189 | 3.0 | 5.0 | 0.00 | 0.12 | 0.03 | 98 | 1016.4 |
| 20260831105841 | 69 | 189 | 3.0 | 4.0 | 0.00 | 0.12 | 0.03 | 98 | 1016.5 |
| 20260831105108 | 69 | 189 | 3.0 | 5.0 | 0.00 | 0.12 | 0.03 | 98 | 1016.5 |
| 20260831104607 | 69 | 189 | 1.0 | 5.0 | 0.00 | 0.12 | 0.03 | 98 | 1016.4 |
| 20260831104101 | 69 | 189 | 1.0 | 4.0 | 0.00 | 0.12 | 0.03 | 98 | 1016.3 |
| 20260831103559 | 69 | 189 | 1.0 | 5.0 | 0.00 | 0.12 | 0.03 | 98 | 1016.2 |
| 20260831103054 | 69 | 189 | 2.0 | 5.0 | 0.00 | 0.12 | 0.03 | 98 | 1016.1 |
| 20260831102540 | 69 | 189 | 3.0 | 6.0 | 0.00 | 0.12 | 0.03 | 98 | 1016.1 |
| 20260831102032 | 69 | 189 | 3.0 | 6.0 | 0.00 | 0.12 | 0.03 | 98 | 1016.1 |
| 20260831101514 | 69 | 191 | 3.0 | 6.0 | 0.00 | 0.12 | 0.03 | 98 | 1016.1 |
| 20260831101010 | 69 | 191 | 2.0 | 4.0 | 0.00 | 0.12 | 0.03 | 98 | 1016.1 |
| 20260831100507 | 69 | 191 | 1.0 | 4.0 | 0.01 | 0.12 | 0.03 | 98 | 1016.1 |
| 20260831100220 | 69 | 191 | 2.0 | 4.0 | 0.01 | 0.12 | 0.03 | 98 | 1016.2 |
| 20260831095444 | 69 | 191 | 3.0 | 4.0 | 0.01 | 0.12 | 0.03 | 98 | 1016.1 |
| 20260831094944 | 69 | 191 | 3.0 | 4.0 | 0.02 | 0.12 | 0.03 | 98 | 1016.2 |
| 20260831094856 | 69 | 191 | 2.0 | 5.0 | 0.02 | 0.12 | 0.03 | 98 | 1016.3 |
| 20260831093913 | 69 | 191 | 1.0 | 5.0 | 0.02 | 0.12 | 0.03 | 98 | 1016.3 |
| 20260831093359 | 69 | 191 | 0.0 | 4.0 | 0.02 | 0.12 | 0.03 | 98 | 1016.4 |
| 20260831092847 | 69 | 191 | 0.0 | 0.0 | 0.02 | 0.12 | 0.03 | 98 | 1016.3 |
| 20260831092806 | 68 | 191 | 0.0 | 0.0 | 0.02 | 0.12 | 0.03 | 98 | 1016.2 |
| 20260831091817 | 68 | 191 | 0.0 | 0.0 | 0.02 | 0.12 | 0.03 | 98 | 1016.2 |
| 20260831091317 | 68 | 191 | 1.0 | 4.0 | 0.02 | 0.12 | 0.03 | 98 | 1016.2 |
| 20260831091031 | 68 | 191 | 2.0 | 5.0 | 0.01 | 0.11 | 0.02 | 98 | 1016.3 |
| 20260831090245 | 68 | 191 | 1.0 | 5.0 | 0.01 | 0.11 | 0.02 | 98 | 1016.3 |
| 20260831085930 | 68 | 191 | 1.0 | 4.0 | 0.01 | 0.11 | 0.02 | 98 | 1016.3 |
| 20260831085212 | 68 | 191 | 2.0 | 4.0 | 0.01 | 0.11 | 0.02 | 98 | 1016.3 |
| 20260831084644 | 68 | 191 | 3.0 | 4.0 | 0.00 | 0.10 | 0.01 | 98 | 1016.1 |
| 20260831084111 | 68 | 191 | 3.0 | 4.0 | 0.00 | 0.10 | 0.01 | 98 | 1016.1 |
| 20260831083612 | 68 | 191 | 3.0 | 5.0 | 0.00 | 0.10 | 0.01 | 97 | 1016.2 |
| 20260831083104 | 68 | 191 | 2.0 | 5.0 | 0.00 | 0.10 | 0.01 | 97 | 1016.2 |
| 20260831082604 | 68 | 191 | 1.0 | 5.0 | 0.00 | 0.10 | 0.01 | 97 | 1016.2 |
| 20260831082318 | 68 | 191 | 0.0 | 3.0 | 0.00 | 0.10 | 0.01 | 97 | 1016.1 |
| 20260831081552 | 68 | 191 | 1.0 | 4.0 | 0.00 | 0.10 | 0.01 | 98 | 1016.1 |
| 20260831081037 | 68 | 191 | 3.0 | 4.0 | 0.00 | 0.10 | 0.01 | 98 | 1016.2 |
| 20260831080750 | 68 | 191 | 3.0 | 5.0 | 0.00 | 0.10 | 0.01 | 98 | 1016.1 |
| 20260831080655 | 68 | 191 | 3.0 | 5.0 | 0.00 | 0.10 | 0.01 | 98 | 1016.2 |
| 20260831075526 | 68 | 191 | 3.0 | 5.0 | 0.00 | 0.10 | 0.01 | 98 | 1016.1 |
| 20260831075018 | 68 | 191 | 1.0 | 5.0 | 0.00 | 0.10 | 0.01 | 98 | 1016.1 |
| 20260831074522 | 68 | 191 | 1.0 | 4.0 | 0.00 | 0.10 | 0.01 | 98 | 1016.1 |
| 20260831074008 | 68 | 191 | 2.0 | 4.0 | 0.00 | 0.10 | 0.01 | 98 | 1016.0 |
| 20260831073505 | 68 | 191 | 3.0 | 5.0 | 0.00 | 0.10 | 0.01 | 98 | 1016.0 |
| 20260831073000 | 68 | 191 | 3.0 | 5.0 | 0.00 | 0.10 | 0.01 | 98 | 1015.9 |
| 20260831072457 | 68 | 191 | 3.0 | 5.0 | 0.00 | 0.10 | 0.01 | 98 | 1016.1 |
| 20260831071954 | 68 | 191 | 3.0 | 5.0 | 0.00 | 0.10 | 0.01 | 98 | 1016.1 |
| 20260831071451 | 68 | 191 | 2.0 | 6.0 | 0.00 | 0.10 | 0.01 | 98 | 1016.2 |
| 20260831070946 | 68 | 191 | 2.0 | 6.0 | 0.00 | 0.10 | 0.01 | 98 | 1016.2 |
| 20260831070437 | 68 | 192 | 2.0 | 5.0 | 0.00 | 0.10 | 0.01 | 98 | 1016.3 |
| 20260831065938 | 68 | 192 | 3.0 | 5.0 | 0.00 | 0.10 | 0.01 | 98 | 1016.3 |
| 20260831065433 | 68 | 192 | 2.0 | 6.0 | 0.00 | 0.10 | 0.01 | 98 | 1016.3 |
| 20260831065158 | 68 | 192 | 1.0 | 6.0 | 0.00 | 0.10 | 0.01 | 98 | 1016.3 |
| 20260831064425 | 68 | 192 | 1.0 | 5.0 | 0.00 | 0.10 | 0.01 | 98 | 1016.4 |
| 20260831063929 | 68 | 192 | 2.0 | 5.0 | 0.00 | 0.10 | 0.01 | 98 | 1016.4 |
| 20260831063418 | 68 | 192 | 3.0 | 5.0 | 0.00 | 0.10 | 0.01 | 98 | 1016.4 |
| 20260831062912 | 68 | 192 | 3.0 | 5.0 | 0.00 | 0.10 | 0.01 | 98 | 1016.4 |
| 20260831062404 | 68 | 192 | 2.0 | 4.0 | 0.00 | 0.10 | 0.01 | 98 | 1016.4 |
| 20260831061904 | 68 | 192 | 4.0 | 5.0 | 0.00 | 0.10 | 0.01 | 98 | 1016.4 |
| 20260831061354 | 68 | 192 | 4.0 | 6.0 | 0.00 | 0.10 | 0.01 | 98 | 1016.3 |
| 20260831060852 | 68 | 192 | 4.0 | 6.0 | 0.00 | 0.10 | 0.01 | 98 | 1016.3 |
| 20260831060339 | 68 | 192 | 3.0 | 6.0 | 0.00 | 0.10 | 0.01 | 98 | 1016.4 |
| 20260831055837 | 68 | 194 | 3.0 | 5.0 | 0.00 | 0.10 | 0.01 | 98 | 1016.5 |
| 20260831055313 | 68 | 194 | 3.0 | 5.0 | 0.00 | 0.10 | 0.01 | 98 | 1016.4 |
| 20260831055039 | 68 | 194 | 1.0 | 4.0 | 0.00 | 0.10 | 0.01 | 98 | 1016.5 |
| 20260831054304 | 68 | 194 | 2.0 | 4.0 | 0.00 | 0.10 | 0.01 | 98 | 1016.4 |
| 20260831053807 | 68 | 194 | 2.0 | 4.0 | 0.00 | 0.10 | 0.01 | 98 | 1016.4 |
| 20260831053250 | 68 | 194 | 1.0 | 5.0 | 0.00 | 0.10 | 0.01 | 98 | 1016.4 |
| 20260831052749 | 68 | 194 | 1.0 | 5.0 | 0.00 | 0.10 | 0.01 | 98 | 1016.4 |
| 20260831052503 | 68 | 194 | 1.0 | 3.0 | 0.00 | 0.10 | 0.01 | 98 | 1016.4 |
| 20260831051741 | 68 | 194 | 2.0 | 3.0 | 0.01 | 0.10 | 0.01 | 98 | 1016.4 |
| 20260831051227 | 68 | 194 | 2.0 | 4.0 | 0.01 | 0.10 | 0.01 | 98 | 1016.3 |
| 20260831050726 | 68 | 194 | 2.0 | 4.0 | 0.01 | 0.10 | 0.01 | 98 | 1016.4 |
| 20260831050453 | 68 | 194 | 2.0 | 4.0 | 0.01 | 0.10 | 0.01 | 98 | 1016.4 |
| 20260831045709 | 68 | 195 | 1.0 | 4.0 | 0.01 | 0.10 | 0.01 | 98 | 1016.4 |
| 20260831045204 | 68 | 195 | 0.0 | 4.0 | 0.01 | 0.10 | 0.01 | 98 | 1016.6 |
| 20260831044708 | 68 | 195 | 2.0 | 4.0 | 0.02 | 0.10 | 0.01 | 98 | 1016.8 |
| 20260831044158 | 68 | 195 | 2.0 | 4.0 | 0.02 | 0.10 | 0.01 | 98 | 1016.8 |
| 20260831043915 | 68 | 195 | 2.0 | 3.0 | 0.03 | 0.10 | 0.01 | 98 | 1016.8 |
| 20260831043150 | 68 | 195 | 2.0 | 4.0 | 0.03 | 0.10 | 0.01 | 98 | 1017.0 |
| 20260831042652 | 68 | 195 | 1.0 | 4.0 | 0.03 | 0.10 | 0.01 | 98 | 1017.1 |
| 20260831042354 | 68 | 195 | 1.0 | 4.0 | 0.04 | 0.10 | 0.01 | 98 | 1017.0 |
| 20260831041628 | 68 | 195 | 0.0 | 2.0 | 0.03 | 0.09 | 0.00 | 98 | 1017.2 |
| 20260831041129 | 68 | 195 | 0.0 | 0.0 | 0.03 | 0.09 | 0.00 | 98 | 1017.7 |
| 20260831040631 | 68 | 195 | 0.0 | 0.0 | 0.03 | 0.09 | 0.00 | 98 | 1017.7 |
| 20260831040124 | 68 | 195 | 0.0 | 0.0 | 0.04 | 0.09 | 0.00 | 98 | 1017.9 |
| 20260831035628 | 68 | 195 | 0.0 | 0.0 | 0.04 | 0.09 | 0.09 | 98 | 1017.6 |
| 20260831035110 | 68 | 195 | 0.0 | 0.0 | 0.04 | 0.09 | 0.09 | 98 | 1017.4 |
| 20260831034602 | 68 | 195 | 0.0 | 0.0 | 0.03 | 0.08 | 0.08 | 98 | 1017.9 |
| 20260831034104 | 68 | 195 | 0.0 | 0.0 | 0.03 | 0.08 | 0.08 | 98 | 1017.8 |
| 20260831033558 | 68 | 195 | 0.0 | 0.0 | 0.02 | 0.07 | 0.07 | 98 | 1018.0 |
| 20260831033044 | 68 | 195 | 0.0 | 0.0 | 0.02 | 0.07 | 0.07 | 98 | 1017.9 |
| 20260831032515 | 68 | 195 | 0.0 | 0.0 | 0.02 | 0.07 | 0.07 | 98 | 1018.1 |
| 20260831032243 | 68 | 195 | 0.0 | 0.0 | 0.01 | 0.06 | 0.06 | 98 | 1018.2 |
| 20260831031512 | 68 | 195 | 0.0 | 0.0 | 0.01 | 0.06 | 0.06 | 98 | 1018.1 |
| 20260831031003 | 68 | 195 | 0.0 | 0.0 | 0.01 | 0.06 | 0.06 | 98 | 1017.6 |
| 20260831030506 | 68 | 195 | 0.0 | 0.0 | 0.00 | 0.05 | 0.05 | 98 | 1017.3 |
| 20260831025959 | 68 | 195 | 0.0 | 0.0 | 0.00 | 0.05 | 0.05 | 98 | 1017.3 |
| 20260831025429 | 68 | 195 | 0.0 | 0.0 | 0.00 | 0.05 | 0.05 | 98 | 1017.6 |
| 20260831024930 | 68 | 195 | 0.0 | 0.0 | 0.00 | 0.05 | 0.05 | 98 | 1017.4 |
| 20260831024432 | 68 | 195 | 0.0 | 3.0 | 0.00 | 0.05 | 0.05 | 98 | 1017.4 |
| 20260831023929 | 68 | 195 | 2.0 | 4.0 | 0.00 | 0.05 | 0.05 | 98 | 1017.6 |
| 20260831023922 | 68 | 195 | 3.0 | 4.0 | 0.00 | 0.05 | 0.05 | 98 | 1017.3 |
| 20260831023154 | 68 | 195 | 2.0 | 4.0 | 0.00 | 0.05 | 0.05 | 98 | 1017.4 |
| 20260831022422 | 68 | 195 | 0.0 | 4.0 | 0.00 | 0.05 | 0.05 | 98 | 1017.6 |
| 20260831021921 | 68 | 195 | 0.0 | 0.0 | 0.00 | 0.05 | 0.05 | 98 | 1017.7 |
| 20260831021624 | 69 | 195 | 0.0 | 0.0 | 0.00 | 0.05 | 0.05 | 98 | 1017.7 |
| 20260831020902 | 69 | 195 | 0.0 | 0.0 | 0.00 | 0.05 | 0.05 | 98 | 1017.7 |
| 20260831020626 | 69 | 195 | 0.0 | 0.0 | 0.00 | 0.05 | 0.05 | 98 | 1017.8 |
| 20260831015859 | 69 | 195 | 0.0 | 0.0 | 0.00 | 0.05 | 0.05 | 98 | 1017.9 |
| 20260831015329 | 69 | 195 | 0.0 | 0.0 | 0.00 | 0.05 | 0.05 | 98 | 1017.9 |
| 20260831014821 | 69 | 195 | 0.0 | 0.0 | 0.00 | 0.05 | 0.05 | 98 | 1018.0 |
| 20260831014319 | 69 | 195 | 0.0 | 0.0 | 0.00 | 0.05 | 0.05 | 98 | 1018.0 |
| 20260831014037 | 69 | 195 | 0.0 | 0.0 | 0.00 | 0.05 | 0.05 | 98 | 1018.0 |
| 20260831013802 | 69 | 195 | 0.0 | 0.0 | 0.00 | 0.05 | 0.05 | 98 | 1017.9 |
| 20260831013022 | 69 | 195 | 0.0 | 0.0 | 0.00 | 0.05 | 0.05 | 98 | 1017.9 |
| 20260831012256 | 69 | 195 | 0.0 | 0.0 | 0.00 | 0.05 | 0.05 | 98 | 1018.1 |
| 20260831011755 | 69 | 195 | 0.0 | 0.0 | 0.00 | 0.05 | 0.05 | 98 | 1018.2 |
| 20260831011252 | 69 | 195 | 0.0 | 0.0 | 0.00 | 0.05 | 0.05 | 98 | 1018.2 |
| 20260831010730 | 69 | 195 | 0.0 | 0.0 | 0.00 | 0.05 | 0.05 | 98 | 1018.3 |
| 20260831010227 | 70 | 195 | 0.0 | 0.0 | 0.00 | 0.05 | 0.05 | 98 | 1018.4 |
| 20260831005728 | 70 | 195 | 0.0 | 0.0 | 0.00 | 0.05 | 0.05 | 98 | 1018.6 |
| 20260831005224 | 70 | 195 | 0.0 | 0.0 | 0.00 | 0.05 | 0.05 | 98 | 1018.7 |
| 20260831004721 | 70 | 195 | 0.0 | 0.0 | 0.00 | 0.05 | 0.05 | 98 | 1018.7 |
| 20260831004221 | 70 | 195 | 0.0 | 0.0 | 0.00 | 0.05 | 0.05 | 98 | 1018.7 |
| 20260831003720 | 70 | 195 | 0.0 | 0.0 | 0.00 | 0.05 | 0.05 | 98 | 1018.5 |
| 20260831003658 | 70 | 195 | 0.0 | 0.0 | 0.00 | 0.05 | 0.05 | 98 | 1018.6 |
| 20260831002703 | 70 | 195 | 0.0 | 0.0 | 0.00 | 0.05 | 0.05 | 98 | 1018.6 |
| 20260831002201 | 70 | 195 | 0.0 | 0.0 | 0.00 | 0.05 | 0.05 | 98 | 1018.5 |
| 20260831001921 | 70 | 195 | 0.0 | 0.0 | 0.00 | 0.05 | 0.05 | 98 | 1018.4 |
| 20260831001159 | 70 | 195 | 0.0 | 0.0 | 0.00 | 0.05 | 0.05 | 98 | 1018.3 |
| 20260831000656 | 70 | 195 | 0.0 | 0.0 | 0.00 | 0.05 | 0.05 | 97 | 1018.1 |
| 20260831000151 | 70 | 195 | 0.0 | 0.0 | 0.00 | 0.05 | 0.05 | 97 | 1018.0 |
| 20260830235647 | 70 | 195 | 0.0 | 0.0 | 0.00 | 0.05 | 0.05 | 97 | 1018.0 |
| 20260830235137 | 70 | 195 | 0.0 | 0.0 | 0.00 | 0.05 | 0.05 | 97 | 1018.0 |
| 20260830234624 | 70 | 195 | 0.0 | 0.0 | 0.00 | 0.05 | 0.05 | 97 | 1017.8 |
| 20260830234105 | 70 | 195 | 0.0 | 0.0 | 0.00 | 0.05 | 0.05 | 97 | 1017.9 |
| 20260830233555 | 70 | 195 | 0.0 | 0.0 | 0.00 | 0.05 | 0.05 | 97 | 1017.9 |
| 20260830233517 | 70 | 195 | 0.0 | 0.0 | 0.00 | 0.05 | 0.05 | 97 | 1017.7 |
| 20260830232527 | 71 | 195 | 0.0 | 0.0 | 0.00 | 0.05 | 0.05 | 97 | 1017.4 |
| 20260830232006 | 70 | 195 | 0.0 | 0.0 | 0.00 | 0.05 | 0.05 | 97 | 1017.3 |
| 20260830231507 | 70 | 195 | 0.0 | 0.0 | 0.00 | 0.05 | 0.05 | 97 | 1017.3 |
| 20260830230956 | 71 | 195 | 0.0 | 0.0 | 0.00 | 0.05 | 0.05 | 96 | 1017.3 |
| 20260830230454 | 71 | 195 | 0.0 | 0.0 | 0.00 | 0.05 | 0.05 | 96 | 1017.3 |
| 20260830225952 | 71 | 195 | 0.0 | 0.0 | 0.00 | 0.05 | 0.05 | 96 | 1017.3 |
| 20260830225425 | 71 | 195 | 0.0 | 0.0 | 0.00 | 0.05 | 0.05 | 96 | 1017.3 |
| 20260830225149 | 71 | 195 | 0.0 | 0.0 | 0.00 | 0.05 | 0.05 | 96 | 1017.1 |
| 20260830224422 | 71 | 195 | 0.0 | 0.0 | 0.00 | 0.05 | 0.05 | 96 | 1017.0 |
| 20260830223917 | 71 | 195 | 0.0 | 0.0 | 0.00 | 0.05 | 0.05 | 96 | 1016.8 |
| 20260830223417 | 71 | 195 | 0.0 | 0.0 | 0.00 | 0.05 | 0.05 | 96 | 1016.8 |
| 20260830222921 | 71 | 195 | 0.0 | 0.0 | 0.00 | 0.05 | 0.05 | 96 | 1016.8 |
| 20260830222401 | 71 | 195 | 0.0 | 0.0 | 0.00 | 0.05 | 0.05 | 96 | 1016.9 |
| 20260830221905 | 71 | 195 | 0.0 | 0.0 | 0.00 | 0.05 | 0.05 | 95 | 1016.9 |
| 20260830221624 | 71 | 195 | 0.0 | 0.0 | 0.00 | 0.05 | 0.05 | 95 | 1017.0 |
| 20260830220859 | 71 | 195 | 0.0 | 0.0 | 0.00 | 0.05 | 0.05 | 95 | 1017.0 |
| 20260830220357 | 71 | 195 | 0.0 | 0.0 | 0.00 | 0.05 | 0.05 | 95 | 1017.1 |
| 20260830215850 | 72 | 195 | 0.0 | 0.0 | 0.00 | 0.05 | 0.05 | 95 | 1017.2 |
| 20260830215345 | 72 | 195 | 0.0 | 0.0 | 0.00 | 0.05 | 0.05 | 94 | 1017.0 |
| 20260830214845 | 72 | 195 | 0.0 | 0.0 | 0.00 | 0.05 | 0.05 | 94 | 1016.9 |
| 20260830214345 | 72 | 195 | 0.0 | 0.0 | 0.00 | 0.05 | 0.05 | 94 | 1016.7 |
| 20260830213836 | 72 | 195 | 0.0 | 0.0 | 0.00 | 0.05 | 0.05 | 94 | 1016.8 |
| 20260830213322 | 72 | 195 | 0.0 | 0.0 | 0.00 | 0.05 | 0.05 | 94 | 1016.9 |
| 20260830213043 | 72 | 195 | 0.0 | 0.0 | 0.00 | 0.05 | 0.05 | 94 | 1016.9 |
| 20260830212317 | 72 | 195 | 0.0 | 0.0 | 0.00 | 0.05 | 0.05 | 94 | 1016.9 |
| 20260830211810 | 72 | 195 | 0.0 | 0.0 | 0.00 | 0.05 | 0.05 | 94 | 1016.9 |
| 20260830211313 | 72 | 195 | 0.0 | 0.0 | 0.00 | 0.05 | 0.05 | 94 | 1017.0 |
| 20260830211030 | 72 | 195 | 0.0 | 0.0 | 0.00 | 0.05 | 0.05 | 94 | 1017.1 |
| 20260830210250 | 72 | 195 | 0.0 | 0.0 | 0.00 | 0.05 | 0.05 | 94 | 1017.3 |
| 20260830205959 | 71 | 195 | 0.0 | 0.0 | 0.00 | 0.05 | 0.05 | 94 | 1017.2 |
| 20260830205216 | 71 | 195 | 0.0 | 0.0 | 0.00 | 0.05 | 0.05 | 94 | 1017.2 |
| 20260830204707 | 71 | 195 | 0.0 | 1.0 | 0.00 | 0.05 | 0.05 | 93 | 1017.2 |
| 20260830204152 | 71 | 195 | 0.0 | 1.0 | 0.00 | 0.05 | 0.05 | 94 | 1017.4 |
| 20260830203646 | 71 | 195 | 0.0 | 0.0 | 0.00 | 0.05 | 0.05 | 94 | 1017.4 |
| 20260830203146 | 71 | 195 | 0.0 | 0.0 | 0.00 | 0.05 | 0.05 | 96 | 1017.4 |
| 20260830202644 | 71 | 195 | 0.0 | 0.0 | 0.00 | 0.05 | 0.05 | 96 | 1017.2 |
| 20260830202133 | 70 | 195 | 0.0 | 0.0 | 0.00 | 0.05 | 0.05 | 96 | 1017.2 |
| 20260830201616 | 70 | 195 | 0.0 | 0.0 | 0.00 | 0.05 | 0.05 | 96 | 1017.1 |
| 20260830201112 | 70 | 195 | 0.0 | 0.0 | 0.00 | 0.05 | 0.05 | 96 | 1017.1 |
| 20260830200557 | 70 | 196 | 0.0 | 0.0 | 0.00 | 0.05 | 0.05 | 96 | 1017.1 |
| 20260830200047 | 70 | 196 | 0.0 | 0.0 | 0.00 | 0.05 | 0.05 | 96 | 1017.0 |
| 20260830195745 | 70 | 196 | 0.0 | 0.0 | 0.00 | 0.05 | 0.05 | 96 | 1017.1 |
| 20260830195017 | 70 | 196 | 0.0 | 1.0 | 0.00 | 0.05 | 0.05 | 96 | 1017.1 |
| 20260830194521 | 70 | 196 | 0.0 | 1.0 | 0.00 | 0.05 | 0.05 | 96 | 1017.2 |
| 20260830194008 | 70 | 196 | 0.0 | 0.0 | 0.00 | 0.05 | 0.05 | 96 | 1017.2 |
| 20260830193505 | 70 | 196 | 0.0 | 0.0 | 0.01 | 0.05 | 0.05 | 96 | 1017.4 |
| 20260830192957 | 70 | 196 | 0.0 | 0.0 | 0.01 | 0.05 | 0.05 | 96 | 1017.6 |
| 20260830192451 | 70 | 196 | 0.0 | 0.0 | 0.01 | 0.05 | 0.05 | 96 | 1017.7 |
| 20260830192143 | 70 | 196 | 0.0 | 0.0 | 0.01 | 0.05 | 0.05 | 96 | 1017.8 |
| 20260830191650 | 70 | 196 | 0.0 | 0.0 | 0.01 | 0.05 | 0.05 | 96 | 1017.8 |
| 20260830190846 | 70 | 196 | 0.0 | 0.0 | 0.01 | 0.05 | 0.05 | 96 | 1017.9 |
| 20260830190345 | 70 | 196 | 0.0 | 0.0 | 0.01 | 0.05 | 0.05 | 96 | 1018.0 |
| 20260830185832 | 70 | 196 | 0.0 | 0.0 | 0.01 | 0.05 | 0.05 | 96 | 1018.1 |
| 20260830185331 | 70 | 196 | 0.0 | 0.0 | 0.02 | 0.05 | 0.05 | 95 | 1018.1 |
| 20260830184815 | 70 | 196 | 0.0 | 0.0 | 0.02 | 0.05 | 0.05 | 95 | 1018.3 |
| 20260830184539 | 70 | 196 | 0.0 | 0.0 | 0.02 | 0.05 | 0.05 | 95 | 1018.4 |
| 20260830183811 | 70 | 196 | 0.0 | 0.0 | 0.03 | 0.05 | 0.05 | 95 | 1018.4 |